VLG3RA LEPA-LEMG

Flight info

Callsign VLG3RA
Flight time 1h 18m
Altitude 35000
Route BAVER M603 ALT N851 UNTOS/N0447F340 N865 VIBAS
Aircraft A321/M-SDE3FGHIRWY/LB1

Departure

Time 2026-05-06 13:48
Airport Palma de Mallorca Airport (LEPA)

Arrival

Time 2026-05-06 15:06
Airport Málaga-Costa del Sol Airport (LEMG)
Time Latitude Longitude Altitude Speed Heading
2026-05-06 13:09 39.54991 2.73273 14 ft 0 kts 186°
2026-05-06 13:36 39.54995 2.73273 30 ft 3 kts 185°
2026-05-06 13:37 39.55020 2.73272 30 ft 4 kts 155°
2026-05-06 13:37 39.55037 2.73253 30 ft 4 kts 103°
2026-05-06 13:37 39.55039 2.73238 30 ft 0 kts 87°
2026-05-06 13:40 39.55039 2.73241 30 ft 2 kts 87°
2026-05-06 13:40 39.55044 2.73276 21 ft 6 kts 71°
2026-05-06 13:41 39.55069 2.73348 30 ft 11 kts 61°
2026-05-06 13:41 39.55114 2.73454 30 ft 16 kts 60°
2026-05-06 13:41 39.55170 2.73576 30 ft 14 kts 58°
2026-05-06 13:41 39.55178 2.73654 30 ft 14 kts 101°
2026-05-06 13:42 39.55167 2.73752 30 ft 7 kts 132°
2026-05-06 13:42 39.55168 2.73783 30 ft 0 kts 76°
2026-05-06 13:42 39.55169 2.73786 30 ft 1 kts 72°
2026-05-06 13:42 39.55176 2.73801 30 ft 3 kts 59°
2026-05-06 13:43 39.55181 2.73835 30 ft 5 kts 111°
2026-05-06 13:43 39.55150 2.73875 30 ft 8 kts 146°
2026-05-06 13:43 39.55096 2.73918 30 ft 11 kts 150°
2026-05-06 13:43 39.55025 2.73970 30 ft 13 kts 150°
2026-05-06 13:44 39.54938 2.74037 30 ft 15 kts 149°
2026-05-06 13:44 39.54843 2.74121 30 ft 17 kts 145°
2026-05-06 13:44 39.54755 2.74061 30 ft 17 kts 236°
2026-05-06 13:44 39.54689 2.73922 30 ft 19 kts 240°
2026-05-06 13:45 39.54616 2.73762 30 ft 21 kts 239°
2026-05-06 13:45 39.54495 2.73720 30 ft 0 kts 148°
2026-05-06 13:46 39.54484 2.73728 30 ft 4 kts 149°
2026-05-06 13:46 39.54445 2.73754 30 ft 8 kts 162°
2026-05-06 13:47 39.54435 2.73817 30 ft 4 kts 52°
2026-05-06 13:47 39.54436 2.73820 30 ft 0 kts 54°
2026-05-06 13:47 39.54463 2.73873 30 ft 29 kts 58°
2026-05-06 13:47 39.54698 2.74386 30 ft 101 kts 57°
2026-05-06 13:48 39.55175 2.75391 34 ft 159 kts 58°
2026-05-06 13:48 39.55783 2.76641 621 ft 163 kts 59°
2026-05-06 13:48 39.56389 2.77890 1354 ft 164 kts 59°
2026-05-06 13:48 39.56965 2.79168 1999 ft 166 kts 60°
2026-05-06 13:49 39.57576 2.80542 2322 ft 187 kts 60°
2026-05-06 13:49 39.58264 2.82088 2591 ft 208 kts 60°
2026-05-06 13:49 39.59066 2.83730 2879 ft 226 kts 49°
2026-05-06 13:49 39.60446 2.84878 3045 ft 251 kts 13°
2026-05-06 13:50 39.62207 2.84767 3528 ft 262 kts 337°
2026-05-06 13:50 39.63606 2.83328 4178 ft 265 kts 303°
2026-05-06 13:50 39.64531 2.81208 4956 ft 268 kts 296°
2026-05-06 13:50 39.65348 2.79068 5741 ft 268 kts 295°
2026-05-06 13:51 39.66152 2.76873 6526 ft 270 kts 294°
2026-05-06 13:51 39.66960 2.74660 7271 ft 272 kts 294°
2026-05-06 13:51 39.67780 2.72438 8042 ft 274 kts 294°
2026-05-06 13:51 39.68613 2.70206 8818 ft 276 kts 294°
2026-05-06 13:52 39.69456 2.67963 9598 ft 277 kts 294°
2026-05-06 13:52 39.70303 2.65716 10237 ft 283 kts 294°
2026-05-06 13:52 39.71203 2.63321 10392 ft 306 kts 294°
2026-05-06 13:52 39.72170 2.60752 10570 ft 326 kts 294°
2026-05-06 13:53 39.73181 2.58075 11093 ft 333 kts 294°
2026-05-06 13:53 39.74205 2.55367 11723 ft 336 kts 294°
2026-05-06 13:53 39.75239 2.52633 12356 ft 339 kts 294°
2026-05-06 13:53 39.76283 2.49871 12984 ft 342 kts 294°
2026-05-06 13:54 39.77334 2.47084 13615 ft 345 kts 294°
2026-05-06 13:54 39.78393 2.44269 14188 ft 348 kts 294°
2026-05-06 13:54 39.79456 2.41436 14774 ft 350 kts 293°
2026-05-06 13:54 39.80514 2.38575 15352 ft 352 kts 290°
2026-05-06 13:55 39.81186 2.35535 15911 ft 351 kts 276°
2026-05-06 13:55 39.81237 2.32376 16487 ft 350 kts 262°
2026-05-06 13:55 39.80672 2.29305 17057 ft 351 kts 248°
2026-05-06 13:55 39.79515 2.26499 17624 ft 354 kts 235°
2026-05-06 13:56 39.78057 2.23908 18206 ft 356 kts 234°
2026-05-06 13:56 39.76586 2.21304 18716 ft 358 kts 234°
2026-05-06 13:56 39.75107 2.18687 19226 ft 360 kts 234°
2026-05-06 13:56 39.73624 2.16061 19738 ft 362 kts 234°
2026-05-06 13:57 39.72131 2.13413 20254 ft 364 kts 234°
2026-05-06 13:57 39.70635 2.10756 20770 ft 365 kts 234°
2026-05-06 13:57 39.69127 2.08079 21261 ft 368 kts 234°
2026-05-06 13:57 39.67634 2.05433 21752 ft 370 kts 234°
2026-05-06 13:58 39.66110 2.02735 22232 ft 371 kts 234°
2026-05-06 13:58 39.64575 2.00019 22689 ft 373 kts 234°
2026-05-06 13:58 39.63030 1.97295 23140 ft 376 kts 234°
2026-05-06 13:58 39.61477 1.94564 23575 ft 378 kts 234°
2026-05-06 13:59 39.59912 1.91811 23942 ft 379 kts 234°
2026-05-06 13:59 39.58346 1.89051 24309 ft 381 kts 234°
2026-05-06 13:59 39.56773 1.86278 24685 ft 382 kts 234°
2026-05-06 13:59 39.55191 1.83494 25054 ft 384 kts 234°
2026-05-06 14:00 39.53603 1.80709 25415 ft 385 kts 234°
2026-05-06 14:00 39.52009 1.77911 25766 ft 387 kts 235°
2026-05-06 14:00 39.50410 1.75099 26121 ft 388 kts 235°
2026-05-06 14:00 39.48805 1.72280 26477 ft 390 kts 234°
2026-05-06 14:01 39.47191 1.69453 26826 ft 391 kts 234°
2026-05-06 14:01 39.45567 1.66613 27170 ft 393 kts 234°
2026-05-06 14:01 39.43939 1.63772 27507 ft 394 kts 234°
2026-05-06 14:01 39.42300 1.60917 27836 ft 396 kts 234°
2026-05-06 14:02 39.40654 1.58048 28164 ft 398 kts 234°
2026-05-06 14:02 39.39025 1.55209 28473 ft 399 kts 234°
2026-05-06 14:02 39.37368 1.52325 28781 ft 401 kts 234°
2026-05-06 14:02 39.35703 1.49429 29084 ft 402 kts 234°
2026-05-06 14:03 39.34028 1.46516 29385 ft 404 kts 234°
2026-05-06 14:03 39.32352 1.43600 29699 ft 406 kts 234°
2026-05-06 14:03 39.30666 1.40670 30010 ft 407 kts 234°
2026-05-06 14:03 39.28973 1.37734 30332 ft 407 kts 234°
2026-05-06 14:04 39.27286 1.34813 30710 ft 405 kts 234°
2026-05-06 14:04 39.25606 1.31903 31085 ft 404 kts 234°
2026-05-06 14:04 39.23932 1.29002 31455 ft 402 kts 234°
2026-05-06 14:04 39.22265 1.26120 31816 ft 401 kts 234°
2026-05-06 14:05 39.20597 1.23247 32180 ft 399 kts 234°
2026-05-06 14:05 39.18936 1.20388 32544 ft 398 kts 234°
2026-05-06 14:05 39.17275 1.17532 32893 ft 397 kts 234°
2026-05-06 14:05 39.15621 1.14695 33248 ft 395 kts 234°
2026-05-06 14:06 39.13971 1.11867 33598 ft 394 kts 234°
2026-05-06 14:06 39.12331 1.09057 33952 ft 393 kts 234°
2026-05-06 14:06 39.10693 1.06246 34227 ft 392 kts 234°
2026-05-06 14:06 39.09059 1.03440 34477 ft 391 kts 234°
2026-05-06 14:07 39.07429 1.00638 34719 ft 391 kts 234°
2026-05-06 14:07 39.05794 0.97831 34906 ft 392 kts 234°
2026-05-06 14:07 39.02528 0.92242 34953 ft 390 kts 234°
2026-05-06 14:08 38.99259 0.86680 34958 ft 390 kts 234°
2026-05-06 14:08 38.96016 0.81161 34952 ft 389 kts 234°
2026-05-06 14:09 38.92756 0.75599 34953 ft 389 kts 234°
2026-05-06 14:09 38.89485 0.70053 34948 ft 390 kts 234°
2026-05-06 14:10 38.86889 0.63999 34954 ft 389 kts 248°
2026-05-06 14:10 38.84892 0.57544 34961 ft 389 kts 248°
2026-05-06 14:11 38.82863 0.51092 34967 ft 390 kts 248°
2026-05-06 14:11 38.80273 0.45013 34968 ft 390 kts 237°
2026-05-06 14:12 38.77265 0.39211 34971 ft 390 kts 238°
2026-05-06 14:12 38.74274 0.33405 34970 ft 391 kts 238°
2026-05-06 14:13 38.71294 0.27637 34973 ft 391 kts 237°
2026-05-06 14:13 38.68284 0.21841 34971 ft 391 kts 237°
2026-05-06 14:14 38.65273 0.16051 34972 ft 391 kts 237°
2026-05-06 14:14 38.62386 0.10186 34967 ft 389 kts 247°
2026-05-06 14:15 38.60376 0.03757 34972 ft 389 kts 248°
2026-05-06 14:15 38.58384 -0.02673 34971 ft 389 kts 248°
2026-05-06 14:16 38.56393 -0.09094 34965 ft 389 kts 248°
2026-05-06 14:16 38.54400 -0.15514 34963 ft 387 kts 248°
2026-05-06 14:17 38.52412 -0.21882 34947 ft 386 kts 248°
2026-05-06 14:17 38.50421 -0.28249 34948 ft 387 kts 248°
2026-05-06 14:18 38.48434 -0.34596 34948 ft 388 kts 248°
2026-05-06 14:18 38.46423 -0.40983 34954 ft 388 kts 248°
2026-05-06 14:19 38.44411 -0.47379 34955 ft 388 kts 248°
2026-05-06 14:19 38.42401 -0.53757 34960 ft 388 kts 248°
2026-05-06 14:20 38.40380 -0.60139 34962 ft 388 kts 248°
2026-05-06 14:20 38.38362 -0.66512 34966 ft 388 kts 248°
2026-05-06 14:21 38.36339 -0.72889 34965 ft 388 kts 248°
2026-05-06 14:21 38.34313 -0.79253 34967 ft 387 kts 248°
2026-05-06 14:22 38.32286 -0.85603 34961 ft 387 kts 248°
2026-05-06 14:22 38.30272 -0.91900 34960 ft 387 kts 248°
2026-05-06 14:23 38.28237 -0.98242 34956 ft 387 kts 247°
2026-05-06 14:23 38.26197 -1.04576 34952 ft 387 kts 248°
2026-05-06 14:24 38.24165 -1.10909 34949 ft 386 kts 247°
2026-05-06 14:24 38.22129 -1.17227 34943 ft 386 kts 247°
2026-05-06 14:25 38.20086 -1.23550 34942 ft 386 kts 247°
2026-05-06 14:25 38.18035 -1.29858 34938 ft 386 kts 247°
2026-05-06 14:26 38.15985 -1.36154 34937 ft 386 kts 247°
2026-05-06 14:26 38.13932 -1.42447 34931 ft 386 kts 247°
2026-05-06 14:27 38.11879 -1.48745 34936 ft 386 kts 247°
2026-05-06 14:27 38.09824 -1.55029 34937 ft 385 kts 247°
2026-05-06 14:28 38.07766 -1.61313 34939 ft 385 kts 247°
2026-05-06 14:28 38.05702 -1.67591 34937 ft 385 kts 247°
2026-05-06 14:29 38.03654 -1.73827 34937 ft 385 kts 247°
2026-05-06 14:29 38.01589 -1.80100 34934 ft 385 kts 247°
2026-05-06 14:30 37.99517 -1.86363 34938 ft 385 kts 247°
2026-05-06 14:30 37.97444 -1.92628 34937 ft 385 kts 247°
2026-05-06 14:31 37.95366 -1.98881 34939 ft 385 kts 246°
2026-05-06 14:31 37.93278 -2.05127 34944 ft 385 kts 246°
2026-05-06 14:32 37.91553 -2.10321 34943 ft 385 kts 247°
2026-05-06 14:32 37.89468 -2.16565 34944 ft 385 kts 246°
2026-05-06 14:33 37.87365 -2.22804 34945 ft 385 kts 246°
2026-05-06 14:33 37.85274 -2.29046 34948 ft 385 kts 246°
2026-05-06 14:34 37.83184 -2.35272 34939 ft 385 kts 246°
2026-05-06 14:34 37.81085 -2.41498 34938 ft 385 kts 246°
2026-05-06 14:35 37.78988 -2.47718 34932 ft 385 kts 246°
2026-05-06 14:35 37.76893 -2.53896 34928 ft 385 kts 246°
2026-05-06 14:36 37.74789 -2.60111 34927 ft 385 kts 246°
2026-05-06 14:36 37.72687 -2.66313 34682 ft 380 kts 246°
2026-05-06 14:37 37.71649 -2.69371 34417 ft 378 kts 246°
2026-05-06 14:37 37.70617 -2.72408 34159 ft 375 kts 246°
2026-05-06 14:37 37.69591 -2.75423 33892 ft 372 kts 246°
2026-05-06 14:37 37.68570 -2.78414 33593 ft 370 kts 246°
2026-05-06 14:38 37.67554 -2.81389 33278 ft 368 kts 245°
2026-05-06 14:38 37.66542 -2.84344 32982 ft 367 kts 246°
2026-05-06 14:38 37.65530 -2.87293 32694 ft 365 kts 245°
2026-05-06 14:38 37.64519 -2.90233 32402 ft 364 kts 246°
2026-05-06 14:39 37.63527 -2.93118 32117 ft 363 kts 246°
2026-05-06 14:39 37.62522 -2.96044 31837 ft 362 kts 246°
2026-05-06 14:39 37.61521 -2.98951 31556 ft 361 kts 246°
2026-05-06 14:39 37.60521 -3.01854 31288 ft 360 kts 246°
2026-05-06 14:40 37.59525 -3.04751 31001 ft 359 kts 246°
2026-05-06 14:40 37.58531 -3.07642 30727 ft 359 kts 246°
2026-05-06 14:40 37.57537 -3.10522 30454 ft 358 kts 246°
2026-05-06 14:40 37.56544 -3.13394 30186 ft 358 kts 246°
2026-05-06 14:41 37.55550 -3.16268 29930 ft 357 kts 246°
2026-05-06 14:41 37.54561 -3.19124 29610 ft 356 kts 246°
2026-05-06 14:41 37.53569 -3.21978 29298 ft 355 kts 245°
2026-05-06 14:41 37.52583 -3.24818 28994 ft 353 kts 246°
2026-05-06 14:42 37.51600 -3.27654 28692 ft 352 kts 246°
2026-05-06 14:42 37.50622 -3.30476 28396 ft 351 kts 246°
2026-05-06 14:42 37.49645 -3.33289 28096 ft 351 kts 246°
2026-05-06 14:42 37.48668 -3.36097 27803 ft 350 kts 246°
2026-05-06 14:43 37.47702 -3.38871 27524 ft 356 kts 246°
2026-05-06 14:43 37.46671 -3.41822 27228 ft 368 kts 246°
2026-05-06 14:43 37.45636 -3.44780 26959 ft 370 kts 245°
2026-05-06 14:43 37.44592 -3.47743 26889 ft 370 kts 244°
2026-05-06 14:44 37.43198 -3.50467 26903 ft 372 kts 232°
2026-05-06 14:44 37.41581 -3.53000 26651 ft 370 kts 232°
2026-05-06 14:44 37.39969 -3.55498 26129 ft 367 kts 232°
2026-05-06 14:45 37.36755 -3.60448 25106 ft 364 kts 232°
2026-05-06 14:45 37.35153 -3.62925 24618 ft 363 kts 232°
2026-05-06 14:45 37.33563 -3.65382 24146 ft 362 kts 232°
2026-05-06 14:45 37.31973 -3.67837 23700 ft 361 kts 232°
2026-05-06 14:46 37.30391 -3.70282 23229 ft 360 kts 232°
2026-05-06 14:46 37.28816 -3.72716 22732 ft 359 kts 232°
2026-05-06 14:46 37.27264 -3.75109 22239 ft 357 kts 232°
2026-05-06 14:46 37.25838 -3.77629 21763 ft 353 kts 244°
2026-05-06 14:47 37.25065 -3.80538 21277 ft 352 kts 261°
2026-05-06 14:47 37.24851 -3.83598 20757 ft 352 kts 264°
2026-05-06 14:47 37.24686 -3.86648 20253 ft 351 kts 265°
2026-05-06 14:47 37.24530 -3.89702 19764 ft 350 kts 265°
2026-05-06 14:48 37.24377 -3.92745 19282 ft 349 kts 265°
2026-05-06 14:48 37.24240 -3.95781 18812 ft 347 kts 265°
2026-05-06 14:48 37.24101 -3.98800 18341 ft 346 kts 265°
2026-05-06 14:48 37.23960 -4.01811 17838 ft 345 kts 265°
2026-05-06 14:49 37.23818 -4.04810 17315 ft 343 kts 265°
2026-05-06 14:49 37.23674 -4.07793 16818 ft 342 kts 265°
2026-05-06 14:49 37.23529 -4.10765 16314 ft 341 kts 265°
2026-05-06 14:49 37.23382 -4.13726 15807 ft 339 kts 265°
2026-05-06 14:50 37.23234 -4.16668 15330 ft 337 kts 265°
2026-05-06 14:50 37.23053 -4.19598 14862 ft 336 kts 264°
2026-05-06 14:50 37.22846 -4.22509 14423 ft 335 kts 264°
2026-05-06 14:50 37.22638 -4.25413 13980 ft 333 kts 264°
2026-05-06 14:51 37.22441 -4.28302 13493 ft 332 kts 264°
2026-05-06 14:51 37.22262 -4.31143 13029 ft 330 kts 265°
2026-05-06 14:51 37.22091 -4.34038 12540 ft 328 kts 265°
2026-05-06 14:51 37.21929 -4.36850 12101 ft 326 kts 265°
2026-05-06 14:52 37.21767 -4.39676 11730 ft 322 kts 265°
2026-05-06 14:52 37.21611 -4.42402 11505 ft 304 kts 265°
2026-05-06 14:52 37.21463 -4.44988 11263 ft 293 kts 265°
2026-05-06 14:52 37.21277 -4.47510 11001 ft 288 kts 257°
2026-05-06 14:53 37.20572 -4.49824 10661 ft 284 kts 240°
2026-05-06 14:53 37.19593 -4.51970 10319 ft 283 kts 239°
2026-05-06 14:53 37.18608 -4.54108 9986 ft 282 kts 240°
2026-05-06 14:53 37.17625 -4.56237 9650 ft 282 kts 239°
2026-05-06 14:54 37.16651 -4.58342 9460 ft 275 kts 240°
2026-05-06 14:54 37.15703 -4.60391 9228 ft 270 kts 239°
2026-05-06 14:54 37.14763 -4.62417 8950 ft 268 kts 239°
2026-05-06 14:54 37.13827 -4.64434 8685 ft 267 kts 240°
2026-05-06 14:55 37.12897 -4.66437 8383 ft 266 kts 240°
2026-05-06 14:55 37.11972 -4.68435 8084 ft 264 kts 240°
2026-05-06 14:55 37.11052 -4.70419 7842 ft 259 kts 239°
2026-05-06 14:55 37.10159 -4.72343 7571 ft 254 kts 239°
2026-05-06 14:56 37.09275 -4.74244 7360 ft 251 kts 240°
2026-05-06 14:56 37.08413 -4.76099 7249 ft 241 kts 239°
2026-05-06 14:56 37.07380 -4.77688 6966 ft 238 kts 221°
2026-05-06 14:56 37.05968 -4.78750 6623 ft 238 kts 201°
2026-05-06 14:57 37.04377 -4.79148 6451 ft 232 kts 182°
2026-05-06 14:57 37.02785 -4.78901 6216 ft 232 kts 166°
2026-05-06 14:57 37.01230 -4.78405 5850 ft 231 kts 166°
2026-05-06 14:57 36.99675 -4.77910 5531 ft 230 kts 167°
2026-05-06 14:58 36.98121 -4.77414 5351 ft 231 kts 167°
2026-05-06 14:58 36.96561 -4.76919 5176 ft 231 kts 167°
2026-05-06 14:58 36.95005 -4.76424 5008 ft 230 kts 166°
2026-05-06 14:58 36.93476 -4.75935 4860 ft 222 kts 166°
2026-05-06 14:59 36.92008 -4.75462 4657 ft 214 kts 166°
2026-05-06 14:59 36.90579 -4.75006 4415 ft 210 kts 167°
2026-05-06 14:59 36.89173 -4.74560 4184 ft 208 kts 167°
2026-05-06 14:59 36.87773 -4.74115 3955 ft 207 kts 166°
2026-05-06 15:00 36.86380 -4.73671 3729 ft 206 kts 166°
2026-05-06 15:00 36.84994 -4.73231 3498 ft 202 kts 167°
2026-05-06 15:00 36.83658 -4.72807 3299 ft 196 kts 166°
2026-05-06 15:00 36.82348 -4.72391 3095 ft 193 kts 166°
2026-05-06 15:01 36.81050 -4.71979 3012 ft 193 kts 166°
2026-05-06 15:01 36.79755 -4.71566 3008 ft 192 kts 166°
2026-05-06 15:01 36.78474 -4.71099 3016 ft 193 kts 156°
2026-05-06 15:01 36.77377 -4.70153 3024 ft 193 kts 134°
2026-05-06 15:02 36.76640 -4.68768 3013 ft 192 kts 117°
2026-05-06 15:02 36.76024 -4.67292 2899 ft 189 kts 117°
2026-05-06 15:02 36.75441 -4.65897 2718 ft 176 kts 118°
2026-05-06 15:02 36.74889 -4.64576 2485 ft 169 kts 118°
2026-05-06 15:03 36.74362 -4.63318 2267 ft 162 kts 118°
2026-05-06 15:03 36.73846 -4.62087 2053 ft 159 kts 118°
2026-05-06 15:03 36.73339 -4.60876 1848 ft 157 kts 118°
2026-05-06 15:03 36.72837 -4.59676 1641 ft 156 kts 119°
2026-05-06 15:04 36.72339 -4.58488 1429 ft 153 kts 118°
2026-05-06 15:04 36.71844 -4.57313 1232 ft 153 kts 117°
2026-05-06 15:04 36.71348 -4.56148 1029 ft 153 kts 119°
2026-05-06 15:04 36.70864 -4.54989 772 ft 148 kts 117°
2026-05-06 15:05 36.70399 -4.53838 663 ft 150 kts 118°
2026-05-06 15:05 36.69923 -4.52699 435 ft 147 kts 117°
2026-05-06 15:05 36.69447 -4.51577 232 ft 146 kts 118°
2026-05-06 15:05 36.68975 -4.50464 74 ft 146 kts 118°
2026-05-06 15:06 36.68545 -4.49441 47 ft 114 kts 117°
2026-05-06 15:06 36.68245 -4.48737 41 ft 71 kts 120°
2026-05-06 15:06 36.68046 -4.48279 38 ft 39 kts 117°
2026-05-06 15:06 36.67941 -4.48114 37 ft 17 kts 156°
2026-05-06 15:07 36.67873 -4.48082 36 ft 5 kts 160°
2026-05-06 15:07 36.67833 -4.48089 36 ft 7 kts 199°
2026-05-06 15:07 36.67806 -4.48105 36 ft 0 kts 213°
2026-05-06 15:08 36.67804 -4.48111 37 ft 2 kts 239°
2026-05-06 15:08 36.67809 -4.48152 37 ft 8 kts 289°
2026-05-06 15:08 36.67850 -4.48236 37 ft 15 kts 302°
2026-05-06 15:08 36.67909 -4.48375 40 ft 21 kts 297°
2026-05-06 15:09 36.67988 -4.48566 40 ft 28 kts 297°
2026-05-06 15:09 36.68078 -4.48779 40 ft 26 kts 297°
2026-05-06 15:09 36.68159 -4.48972 40 ft 25 kts 298°
2026-05-06 15:09 36.68241 -4.49170 40 ft 26 kts 296°
2026-05-06 15:10 36.68283 -4.49322 40 ft 8 kts 232°
2026-05-06 15:10 36.68236 -4.49377 40 ft 10 kts 217°
2026-05-06 15:10 36.68182 -4.49425 42 ft 10 kts 217°
2026-05-06 15:10 36.68122 -4.49501 42 ft 15 kts 226°
2026-05-06 15:11 36.68029 -4.49559 42 ft 15 kts 159°
2026-05-06 15:11 36.67949 -4.49468 42 ft 16 kts 137°
2026-05-06 15:11 36.67913 -4.49476 42 ft 2 kts 212°
2026-05-06 15:11 36.67895 -4.49491 42 ft 0 kts 214°
2026-05-06 15:12 36.67894 -4.49493 42 ft 0 kts 214°